Year,Month,Day,Hour,Minute,Value (Times are PST for temperature in C)
2012,08,23,00,00,12.00
2012,08,23,00,01,12.00
2012,08,23,00,02,12.00
2012,08,23,00,03,12.00
2012,08,23,00,04,12.00
2012,08,23,00,05,12.00
2012,08,23,00,06,12.00
2012,08,23,00,07,12.00
2012,08,23,00,08,12.00
2012,08,23,00,09,11.90
2012,08,23,00,10,11.90
2012,08,23,00,11,11.90
2012,08,23,00,12,11.90
2012,08,23,00,13,11.90
2012,08,23,00,14,11.90
2012,08,23,00,15,11.90
2012,08,23,00,16,11.90
2012,08,23,00,17,11.90
2012,08,23,00,18,11.90
2012,08,23,00,19,11.90
2012,08,23,00,20,11.80
2012,08,23,00,21,11.80
2012,08,23,00,22,11.80
2012,08,23,00,23,11.80
2012,08,23,00,24,11.80
2012,08,23,00,25,11.80
2012,08,23,00,26,11.80
2012,08,23,00,27,11.80
2012,08,23,00,28,11.80
2012,08,23,00,29,11.80
2012,08,23,00,30,11.80
2012,08,23,00,31,11.80
2012,08,23,00,32,11.80
2012,08,23,00,33,11.80
2012,08,23,00,34,11.80
2012,08,23,00,35,11.70
2012,08,23,00,36,11.70
2012,08,23,00,37,11.70
2012,08,23,00,38,11.70
2012,08,23,00,39,11.60
2012,08,23,00,40,11.60
2012,08,23,00,41,11.60
2012,08,23,00,42,11.60
2012,08,23,00,43,11.60
2012,08,23,00,44,11.60
2012,08,23,00,45,11.50
2012,08,23,00,46,11.50
2012,08,23,00,47,11.50
2012,08,23,00,48,11.50
2012,08,23,00,49,11.50
2012,08,23,00,50,11.50
2012,08,23,00,51,11.50
2012,08,23,00,52,11.50
2012,08,23,00,53,11.40
2012,08,23,00,54,11.40
2012,08,23,00,55,11.40
2012,08,23,00,56,11.40
2012,08,23,00,57,11.40
2012,08,23,00,58,11.40
2012,08,23,00,59,11.40
2012,08,23,01,00,11.40
2012,08,23,01,01,11.40
2012,08,23,01,02,11.30
2012,08,23,01,03,11.40
2012,08,23,01,04,11.30
2012,08,23,01,05,11.30
2012,08,23,01,06,11.30
2012,08,23,01,07,11.30
2012,08,23,01,08,11.30
2012,08,23,01,09,11.30
2012,08,23,01,10,11.30
2012,08,23,01,11,11.30
2012,08,23,01,12,11.30
2012,08,23,01,13,11.30
2012,08,23,01,14,11.30
2012,08,23,01,15,11.30
2012,08,23,01,16,11.30
2012,08,23,01,17,11.30
2012,08,23,01,18,11.20
2012,08,23,01,19,11.20
2012,08,23,01,20,11.20
2012,08,23,01,21,11.20
2012,08,23,01,22,11.20
2012,08,23,01,23,11.20
2012,08,23,01,24,11.20
2012,08,23,01,25,11.20
2012,08,23,01,26,11.20
2012,08,23,01,27,11.20
2012,08,23,01,28,11.20
2012,08,23,01,29,11.20
2012,08,23,01,30,11.10
2012,08,23,01,31,11.10
2012,08,23,01,32,11.10
2012,08,23,01,33,11.10
2012,08,23,01,34,11.10
2012,08,23,01,35,11.10
2012,08,23,01,36,11.10
2012,08,23,01,37,11.10
2012,08,23,01,38,11.00
2012,08,23,01,39,11.00
2012,08,23,01,40,11.00
2012,08,23,01,41,11.00
2012,08,23,01,42,10.90
2012,08,23,01,43,10.90
2012,08,23,01,44,11.00
2012,08,23,01,45,11.00
2012,08,23,01,46,11.00
2012,08,23,01,47,11.00
2012,08,23,01,48,11.00
2012,08,23,01,49,11.00
2012,08,23,01,50,10.90
2012,08,23,01,51,10.90
2012,08,23,01,52,10.90
2012,08,23,01,53,10.90
2012,08,23,01,54,10.90
2012,08,23,01,55,10.90
2012,08,23,01,56,10.90
2012,08,23,01,57,10.90
2012,08,23,01,58,10.90
2012,08,23,01,59,10.90
2012,08,23,02,00,10.90
2012,08,23,02,01,10.90
2012,08,23,02,02,10.90
2012,08,23,02,03,10.90
2012,08,23,02,04,10.80
2012,08,23,02,05,10.80
2012,08,23,02,06,10.80
2012,08,23,02,07,10.80
2012,08,23,02,08,10.80
2012,08,23,02,09,10.80
2012,08,23,02,10,10.90
2012,08,23,02,11,10.90
2012,08,23,02,12,10.90
2012,08,23,02,13,10.90
2012,08,23,02,14,10.90
2012,08,23,02,15,10.90
2012,08,23,02,16,10.90
2012,08,23,02,17,10.90
2012,08,23,02,18,10.90
2012,08,23,02,19,10.90
2012,08,23,02,20,10.80
2012,08,23,02,21,10.80
2012,08,23,02,22,10.80
2012,08,23,02,23,10.90
2012,08,23,02,24,10.90
2012,08,23,02,25,10.90
2012,08,23,02,26,10.90
2012,08,23,02,27,10.90
2012,08,23,02,28,10.90
2012,08,23,02,29,10.90
2012,08,23,02,30,10.90
2012,08,23,02,31,10.90
2012,08,23,02,32,10.90
2012,08,23,02,33,10.90
2012,08,23,02,34,10.90
2012,08,23,02,35,10.80
2012,08,23,02,36,10.80
2012,08,23,02,37,10.80
2012,08,23,02,38,10.80
2012,08,23,02,39,10.80
2012,08,23,02,40,10.80
2012,08,23,02,41,10.80
2012,08,23,02,42,10.80
2012,08,23,02,43,10.80
2012,08,23,02,44,10.80
2012,08,23,02,45,10.80
2012,08,23,02,46,10.80
2012,08,23,02,47,10.80
2012,08,23,02,48,10.80
2012,08,23,02,49,10.80
2012,08,23,02,50,10.80
2012,08,23,02,51,10.80
2012,08,23,02,52,10.80
2012,08,23,02,53,10.80
2012,08,23,02,54,10.80
2012,08,23,02,55,10.80
2012,08,23,02,56,10.80
2012,08,23,02,57,10.80
2012,08,23,02,58,10.80
2012,08,23,02,59,10.80
2012,08,23,03,00,10.80
2012,08,23,03,01,10.80
2012,08,23,03,02,10.90
2012,08,23,03,03,10.90
2012,08,23,03,04,10.90
2012,08,23,03,05,10.90
2012,08,23,03,06,11.00
2012,08,23,03,07,11.00
2012,08,23,03,08,11.00
2012,08,23,03,09,11.00
2012,08,23,03,10,11.00
2012,08,23,03,11,11.00
2012,08,23,03,12,11.00
2012,08,23,03,13,11.00
2012,08,23,03,14,11.00
2012,08,23,03,15,11.00
2012,08,23,03,16,11.10
2012,08,23,03,17,11.10
2012,08,23,03,18,11.10
2012,08,23,03,19,11.20
2012,08,23,03,20,11.20
2012,08,23,03,21,11.20
2012,08,23,03,22,11.20
2012,08,23,03,23,11.20
2012,08,23,03,24,11.20
2012,08,23,03,25,11.20
2012,08,23,03,26,11.20
2012,08,23,03,27,11.20
2012,08,23,03,28,11.20
2012,08,23,03,29,11.20
2012,08,23,03,30,11.20
2012,08,23,03,31,11.30
2012,08,23,03,32,11.30
2012,08,23,03,33,11.30
2012,08,23,03,34,11.40
2012,08,23,03,35,11.40
2012,08,23,03,36,11.50
2012,08,23,03,37,11.50
2012,08,23,03,38,11.60
2012,08,23,03,39,11.70
2012,08,23,03,40,11.80
2012,08,23,03,41,11.90
2012,08,23,03,42,12.10
2012,08,23,03,43,12.30
2012,08,23,03,44,12.50
2012,08,23,03,45,12.70
2012,08,23,03,46,12.80
2012,08,23,03,47,12.90
2012,08,23,03,48,13.00
2012,08,23,03,49,13.10
2012,08,23,03,50,13.10
2012,08,23,03,51,13.20
2012,08,23,03,52,13.20
2012,08,23,03,53,13.30
2012,08,23,03,54,13.30
2012,08,23,03,55,13.30
2012,08,23,03,56,13.40
2012,08,23,03,57,13.30
2012,08,23,03,58,13.30
2012,08,23,03,59,13.30
2012,08,23,04,00,13.40
2012,08,23,04,01,13.40
2012,08,23,04,02,13.50
2012,08,23,04,03,13.50
2012,08,23,04,04,13.60
2012,08,23,04,05,13.70
2012,08,23,04,06,13.80
2012,08,23,04,07,13.90
2012,08,23,04,08,14.00
2012,08,23,04,09,14.10
2012,08,23,04,10,14.10
2012,08,23,04,11,14.20
2012,08,23,04,12,14.20
2012,08,23,04,13,14.30
2012,08,23,04,14,14.30
2012,08,23,04,15,14.30
2012,08,23,04,16,14.40
2012,08,23,04,17,14.40
2012,08,23,04,18,14.40
2012,08,23,04,19,14.40
2012,08,23,04,20,14.40
2012,08,23,04,21,14.40
2012,08,23,04,22,14.40
2012,08,23,04,23,14.40
2012,08,23,04,24,14.40
2012,08,23,04,25,14.40
2012,08,23,04,26,14.40
2012,08,23,04,27,14.30
2012,08,23,04,28,14.30
2012,08,23,04,29,14.30
2012,08,23,04,30,14.30
2012,08,23,04,31,14.30
2012,08,23,04,32,14.30
2012,08,23,04,33,14.30
2012,08,23,04,34,14.30
2012,08,23,04,35,14.30
2012,08,23,04,36,14.30
2012,08,23,04,37,14.30
2012,08,23,04,38,14.30
2012,08,23,04,39,14.20
2012,08,23,04,40,14.20
2012,08,23,04,41,14.20
2012,08,23,04,42,14.20
2012,08,23,04,43,14.20
2012,08,23,04,44,14.20
2012,08,23,04,45,14.20
2012,08,23,04,46,14.20
2012,08,23,04,47,14.20
2012,08,23,04,48,14.10
2012,08,23,04,49,14.10
2012,08,23,04,50,14.10
2012,08,23,04,51,14.10
2012,08,23,04,52,14.10
2012,08,23,04,53,14.10
2012,08,23,04,54,14.10
2012,08,23,04,55,14.00
2012,08,23,04,56,14.00
2012,08,23,04,57,14.00
2012,08,23,04,58,14.00
2012,08,23,04,59,14.00
2012,08,23,05,00,13.90
2012,08,23,05,01,13.90
2012,08,23,05,02,13.90
2012,08,23,05,03,13.90
2012,08,23,05,04,13.90
2012,08,23,05,05,13.90
2012,08,23,05,06,13.80
2012,08,23,05,07,13.80
2012,08,23,05,08,13.80
2012,08,23,05,09,13.80
2012,08,23,05,10,13.80
2012,08,23,05,11,13.80
2012,08,23,05,12,13.70
2012,08,23,05,13,13.70
2012,08,23,05,14,13.70
2012,08,23,05,15,13.70
2012,08,23,05,16,13.60
2012,08,23,05,17,13.60
2012,08,23,05,18,13.60
2012,08,23,05,19,13.50
2012,08,23,05,20,13.40
2012,08,23,05,21,13.40
2012,08,23,05,22,13.30
2012,08,23,05,23,13.30
2012,08,23,05,24,13.20
2012,08,23,05,25,13.10
2012,08,23,05,26,13.10
2012,08,23,05,27,13.00
2012,08,23,05,28,13.00
2012,08,23,05,29,12.90
2012,08,23,05,30,12.90
2012,08,23,05,31,12.90
2012,08,23,05,32,12.80
2012,08,23,05,33,12.80
2012,08,23,05,34,12.80
2012,08,23,05,35,12.80
2012,08,23,05,36,12.70
2012,08,23,05,37,12.70
2012,08,23,05,38,12.70
2012,08,23,05,39,12.70
2012,08,23,05,40,12.70
2012,08,23,05,41,12.70
2012,08,23,05,42,12.60
2012,08,23,05,43,12.60
2012,08,23,05,44,12.60
2012,08,23,05,45,12.60
2012,08,23,05,46,12.60
2012,08,23,05,47,12.60
2012,08,23,05,48,12.50
2012,08,23,05,49,12.60
2012,08,23,05,50,12.50
2012,08,23,05,51,12.50
2012,08,23,05,52,12.50
2012,08,23,05,53,12.50
2012,08,23,05,54,12.50
2012,08,23,05,55,12.50
2012,08,23,05,56,12.50
2012,08,23,05,57,12.50
2012,08,23,05,58,12.50
2012,08,23,05,59,12.50
2012,08,23,06,00,12.50
2012,08,23,06,01,12.60
2012,08,23,06,02,12.50
2012,08,23,06,03,12.50
2012,08,23,06,04,12.50
2012,08,23,06,05,12.50
2012,08,23,06,06,12.50
2012,08,23,06,07,12.50
2012,08,23,06,08,12.60
2012,08,23,06,09,12.60
2012,08,23,06,10,12.60
2012,08,23,06,11,12.60
2012,08,23,06,12,12.60
2012,08,23,06,13,12.50
2012,08,23,06,14,12.50
2012,08,23,06,15,12.50
2012,08,23,06,16,12.50
2012,08,23,06,17,12.50
2012,08,23,06,18,12.50
2012,08,23,06,19,12.50
2012,08,23,06,20,12.50
2012,08,23,06,21,12.50
2012,08,23,06,22,12.50
2012,08,23,06,23,12.50
2012,08,23,06,24,12.50
2012,08,23,06,25,12.50
2012,08,23,06,26,12.50
2012,08,23,06,27,12.60
2012,08,23,06,28,12.60
2012,08,23,06,29,12.50
2012,08,23,06,30,12.50
2012,08,23,06,31,12.50
2012,08,23,06,32,12.50
2012,08,23,06,33,12.50
2012,08,23,06,34,12.50
2012,08,23,06,35,12.50
2012,08,23,06,36,12.40
2012,08,23,06,37,12.40
2012,08,23,06,38,12.40
2012,08,23,06,39,12.40
2012,08,23,06,40,12.40
2012,08,23,06,41,12.40
2012,08,23,06,42,12.40
2012,08,23,06,43,12.40
2012,08,23,06,44,12.40
2012,08,23,06,45,12.40
2012,08,23,06,46,12.30
2012,08,23,06,47,12.40
2012,08,23,06,48,12.40
2012,08,23,06,49,12.30
2012,08,23,06,50,12.30
2012,08,23,06,51,12.30
2012,08,23,06,52,12.30
2012,08,23,06,53,12.30
2012,08,23,06,54,12.30
2012,08,23,06,55,12.30
2012,08,23,06,56,12.30
2012,08,23,06,57,12.30
2012,08,23,06,58,12.30
2012,08,23,06,59,12.30
2012,08,23,07,00,12.30
2012,08,23,07,01,12.30
2012,08,23,07,02,12.30
2012,08,23,07,03,12.30
2012,08,23,07,04,12.30
2012,08,23,07,05,12.30
2012,08,23,07,06,12.40
2012,08,23,07,07,12.40
2012,08,23,07,08,12.40
2012,08,23,07,09,12.40
2012,08,23,07,10,12.40
2012,08,23,07,11,12.40
2012,08,23,07,12,12.40
2012,08,23,07,13,12.40
2012,08,23,07,14,12.50
2012,08,23,07,15,12.50
2012,08,23,07,16,12.50
2012,08,23,07,17,12.50
2012,08,23,07,18,12.50
2012,08,23,07,19,12.60
2012,08,23,07,20,12.60
2012,08,23,07,21,12.60
2012,08,23,07,22,12.60
2012,08,23,07,23,12.60
2012,08,23,07,24,12.70
2012,08,23,07,25,12.70
2012,08,23,07,26,12.70
2012,08,23,07,27,12.70
2012,08,23,07,28,12.70
2012,08,23,07,29,12.70
2012,08,23,07,30,12.70
2012,08,23,07,31,12.80
2012,08,23,07,32,12.80
2012,08,23,07,33,12.80
2012,08,23,07,34,12.80
2012,08,23,07,35,12.80
2012,08,23,07,36,12.80
2012,08,23,07,37,12.80
2012,08,23,07,38,12.80
2012,08,23,07,39,12.80
2012,08,23,07,40,12.80
2012,08,23,07,41,12.80
2012,08,23,07,42,12.80
2012,08,23,07,43,12.80
2012,08,23,07,44,12.80
2012,08,23,07,45,12.80
2012,08,23,07,46,12.80
2012,08,23,07,47,12.80
2012,08,23,07,48,12.80
2012,08,23,07,49,12.80
2012,08,23,07,50,12.80
2012,08,23,07,51,12.80
2012,08,23,07,52,12.80
2012,08,23,07,53,12.80
2012,08,23,07,54,12.90
2012,08,23,07,55,12.90
2012,08,23,07,56,12.90
2012,08,23,07,57,12.90
2012,08,23,07,58,12.90
2012,08,23,07,59,12.90
2012,08,23,08,00,12.90
2012,08,23,08,01,12.90
2012,08,23,08,02,12.90
2012,08,23,08,03,13.00
2012,08,23,08,04,13.00
2012,08,23,08,05,13.00
2012,08,23,08,06,13.00
2012,08,23,08,07,13.00
2012,08,23,08,08,13.00
2012,08,23,08,09,13.00
2012,08,23,08,10,13.00
2012,08,23,08,11,13.00
2012,08,23,08,12,13.00
2012,08,23,08,13,12.90
2012,08,23,08,14,12.90
2012,08,23,08,15,12.90
2012,08,23,08,16,12.90
2012,08,23,08,17,12.90
2012,08,23,08,18,12.90
2012,08,23,08,19,12.90
2012,08,23,08,20,13.00
2012,08,23,08,21,13.00
2012,08,23,08,22,13.00
2012,08,23,08,23,13.00
2012,08,23,08,24,13.00
2012,08,23,08,25,13.00
2012,08,23,08,26,13.10
2012,08,23,08,27,13.10
2012,08,23,08,28,13.10
2012,08,23,08,29,13.10
2012,08,23,08,30,13.10
2012,08,23,08,31,13.10
2012,08,23,08,32,13.10
2012,08,23,08,33,13.10
2012,08,23,08,34,13.10
2012,08,23,08,35,13.10
2012,08,23,08,36,13.20
2012,08,23,08,37,13.20
2012,08,23,08,38,13.20
2012,08,23,08,39,13.20
2012,08,23,08,40,13.20
2012,08,23,08,41,13.30
2012,08,23,08,42,13.30
2012,08,23,08,43,13.30
2012,08,23,08,44,13.40
2012,08,23,08,45,13.40
2012,08,23,08,46,13.40
2012,08,23,08,47,13.40
2012,08,23,08,48,13.50
2012,08,23,08,49,13.50
2012,08,23,08,50,13.50
2012,08,23,08,51,13.50
2012,08,23,08,52,13.60
2012,08,23,08,53,13.60
2012,08,23,08,54,13.60
2012,08,23,08,55,13.60
2012,08,23,08,56,13.60
2012,08,23,08,57,13.70
2012,08,23,08,58,13.70
2012,08,23,08,59,13.70
2012,08,23,09,00,13.70
2012,08,23,09,01,13.70
2012,08,23,09,02,13.70
2012,08,23,09,03,13.70
2012,08,23,09,04,13.80
2012,08,23,09,05,13.80
2012,08,23,09,06,13.90
2012,08,23,09,07,13.90
2012,08,23,09,08,14.00
2012,08,23,09,09,14.10
2012,08,23,09,10,14.10
2012,08,23,09,11,14.20
2012,08,23,09,12,14.20
2012,08,23,09,13,14.30
2012,08,23,09,14,14.30
2012,08,23,09,15,14.40
2012,08,23,09,16,14.40
2012,08,23,09,17,14.50
2012,08,23,09,18,14.60
2012,08,23,09,19,14.70
2012,08,23,09,20,14.80
2012,08,23,09,21,14.80
2012,08,23,09,22,14.90
2012,08,23,09,23,15.00
2012,08,23,09,24,15.00
2012,08,23,09,25,15.00
2012,08,23,09,26,15.00
2012,08,23,09,27,15.00
2012,08,23,09,28,15.00
2012,08,23,09,29,15.10
2012,08,23,09,30,15.20
2012,08,23,09,31,15.20
2012,08,23,09,32,15.20
2012,08,23,09,33,15.20
2012,08,23,09,34,15.20
2012,08,23,09,35,15.20
2012,08,23,09,36,15.30
2012,08,23,09,37,15.30
2012,08,23,09,38,15.30
2012,08,23,09,39,15.30
2012,08,23,09,40,15.30
2012,08,23,09,41,15.30
2012,08,23,09,42,15.30
2012,08,23,09,43,15.20
2012,08,23,09,44,15.20
2012,08,23,09,45,15.20
2012,08,23,09,46,15.30
2012,08,23,09,47,15.30
2012,08,23,09,48,15.40
2012,08,23,09,49,15.40
2012,08,23,09,50,15.30
2012,08,23,09,51,15.30
2012,08,23,09,52,15.30
2012,08,23,09,53,15.30
2012,08,23,09,54,15.40
2012,08,23,09,55,15.40
2012,08,23,09,56,15.40
2012,08,23,09,57,15.50
2012,08,23,09,58,15.50
2012,08,23,09,59,15.50
2012,08,23,10,00,15.50
2012,08,23,10,01,15.50
2012,08,23,10,02,15.60
2012,08,23,10,03,15.60
2012,08,23,10,04,15.60
2012,08,23,10,05,15.60
2012,08,23,10,06,15.50
2012,08,23,10,07,15.50
2012,08,23,10,08,15.50
2012,08,23,10,09,15.50
2012,08,23,10,10,15.50
2012,08,23,10,11,15.60
2012,08,23,10,12,15.60
2012,08,23,10,13,15.60
2012,08,23,10,14,15.60
2012,08,23,10,15,15.60
2012,08,23,10,16,15.60
2012,08,23,10,17,15.60
2012,08,23,10,18,15.70
2012,08,23,10,19,15.70
2012,08,23,10,20,15.80
2012,08,23,10,21,15.80
2012,08,23,10,22,15.80
2012,08,23,10,23,15.80
2012,08,23,10,24,15.80
2012,08,23,10,25,15.90
2012,08,23,10,26,15.90
2012,08,23,10,27,15.80
2012,08,23,10,28,15.80
2012,08,23,10,29,15.90
2012,08,23,10,30,15.90
2012,08,23,10,31,15.90
2012,08,23,10,32,15.80
2012,08,23,10,33,15.80
2012,08,23,10,34,15.80
2012,08,23,10,35,15.80
2012,08,23,10,36,15.70
2012,08,23,10,37,15.70
2012,08,23,10,38,15.60
2012,08,23,10,39,15.60
2012,08,23,10,40,15.60
2012,08,23,10,41,15.50
2012,08,23,10,42,15.50
2012,08,23,10,43,15.50
2012,08,23,10,44,15.40
2012,08,23,10,45,15.40
2012,08,23,10,46,15.40
2012,08,23,10,47,15.40
2012,08,23,10,48,15.50
2012,08,23,10,49,15.60
2012,08,23,10,50,15.70
2012,08,23,10,51,15.80
2012,08,23,10,52,15.90
2012,08,23,10,53,15.90
2012,08,23,10,54,16.00
2012,08,23,10,55,16.10
2012,08,23,10,56,16.10
2012,08,23,10,57,16.10
2012,08,23,10,58,16.20
2012,08,23,10,59,16.20
2012,08,23,11,00,16.20
2012,08,23,11,01,16.30
2012,08,23,11,02,16.30
2012,08,23,11,03,16.20
2012,08,23,11,04,16.10
2012,08,23,11,05,16.10
2012,08,23,11,06,16.00
2012,08,23,11,07,15.90
2012,08,23,11,08,15.90
2012,08,23,11,09,15.90
2012,08,23,11,10,16.00
2012,08,23,11,11,16.00
2012,08,23,11,12,16.00
2012,08,23,11,13,16.00
2012,08,23,11,14,15.90
2012,08,23,11,15,15.90
2012,08,23,11,16,15.80
2012,08,23,11,17,15.90
2012,08,23,11,18,15.90
2012,08,23,11,19,15.90
2012,08,23,11,20,15.90
2012,08,23,11,21,15.90
2012,08,23,11,22,15.90
2012,08,23,11,23,16.00
2012,08,23,11,24,16.00
2012,08,23,11,25,16.10
2012,08,23,11,26,16.10
2012,08,23,11,27,16.10
2012,08,23,11,28,16.10
2012,08,23,11,29,16.20
2012,08,23,11,30,16.20
2012,08,23,11,31,16.20
2012,08,23,11,32,16.20
2012,08,23,11,33,16.20
2012,08,23,11,34,16.20
2012,08,23,11,35,16.10
2012,08,23,11,36,16.20
2012,08,23,11,37,16.20
2012,08,23,11,38,16.20
2012,08,23,11,39,16.20
2012,08,23,11,40,16.20
2012,08,23,11,41,16.20
2012,08,23,11,42,16.20
2012,08,23,11,43,16.30
2012,08,23,11,44,16.30
2012,08,23,11,45,16.20
2012,08,23,11,46,16.20
2012,08,23,11,47,16.30
2012,08,23,11,48,16.30
2012,08,23,11,49,16.40
2012,08,23,11,50,16.50
2012,08,23,11,51,16.60
2012,08,23,11,52,16.60
2012,08,23,11,53,16.60
2012,08,23,11,54,16.60
2012,08,23,11,55,16.60
2012,08,23,11,56,16.50
2012,08,23,11,57,16.50
2012,08,23,11,58,16.40
2012,08,23,11,59,16.40
2012,08,23,12,00,16.30
2012,08,23,12,01,16.30
2012,08,23,12,02,16.30
2012,08,23,12,03,16.30
2012,08,23,12,04,16.20
2012,08,23,12,05,16.20
2012,08,23,12,06,16.20
2012,08,23,12,07,16.20
2012,08,23,12,08,16.10
2012,08,23,12,09,16.20
2012,08,23,12,10,16.10
2012,08,23,12,11,16.10
2012,08,23,12,12,16.10
2012,08,23,12,13,16.10
2012,08,23,12,14,16.20
2012,08,23,12,15,16.20
2012,08,23,12,16,16.30
2012,08,23,12,17,16.30
2012,08,23,12,18,16.30
2012,08,23,12,19,16.30
2012,08,23,12,20,16.30
2012,08,23,12,21,16.30
2012,08,23,12,22,16.30
2012,08,23,12,23,16.40
2012,08,23,12,24,16.40
2012,08,23,12,25,16.40
2012,08,23,12,26,16.50
2012,08,23,12,27,16.60
2012,08,23,12,28,16.70
2012,08,23,12,29,16.60
2012,08,23,12,30,16.50
2012,08,23,12,31,16.40
2012,08,23,12,32,16.30
2012,08,23,12,33,16.30
2012,08,23,12,34,16.30
2012,08,23,12,35,16.30
2012,08,23,12,36,16.20
2012,08,23,12,37,16.20
2012,08,23,12,38,16.20
2012,08,23,12,39,16.20
2012,08,23,12,40,16.30
2012,08,23,12,41,16.30
2012,08,23,12,42,16.30
2012,08,23,12,43,16.30
2012,08,23,12,44,16.20
2012,08,23,12,45,16.20
2012,08,23,12,46,16.10
2012,08,23,12,47,16.10
2012,08,23,12,48,16.10
2012,08,23,12,49,16.10
2012,08,23,12,50,16.20
2012,08,23,12,51,16.20
2012,08,23,12,52,16.20
2012,08,23,12,53,16.30
2012,08,23,12,54,16.30
2012,08,23,12,55,16.30
2012,08,23,12,56,16.30
2012,08,23,12,57,16.30
2012,08,23,12,58,16.30
2012,08,23,12,59,16.30
2012,08,23,13,00,16.30
2012,08,23,13,01,16.20
2012,08,23,13,02,16.20
2012,08,23,13,03,16.20
2012,08,23,13,04,16.20
2012,08,23,13,05,16.20
2012,08,23,13,06,16.20
2012,08,23,13,07,16.30
2012,08,23,13,08,16.40
2012,08,23,13,09,16.50
2012,08,23,13,10,16.60
2012,08,23,13,11,16.70
2012,08,23,13,12,16.80
2012,08,23,13,13,16.90
2012,08,23,13,14,17.00
2012,08,23,13,15,17.10
2012,08,23,13,16,17.10
2012,08,23,13,17,17.10
2012,08,23,13,18,17.20
2012,08,23,13,19,17.30
2012,08,23,13,20,17.40
2012,08,23,13,21,17.50
2012,08,23,13,22,17.50
2012,08,23,13,23,17.60
2012,08,23,13,24,17.50
2012,08,23,13,25,17.50
2012,08,23,13,26,17.40
2012,08,23,13,27,17.40
2012,08,23,13,28,17.40
2012,08,23,13,29,17.40
2012,08,23,13,30,17.50
2012,08,23,13,31,17.50
2012,08,23,13,32,17.40
2012,08,23,13,33,17.40
2012,08,23,13,34,17.30
2012,08,23,13,35,17.30
2012,08,23,13,36,17.30
2012,08,23,13,37,17.20
2012,08,23,13,38,17.20
2012,08,23,13,39,17.20
2012,08,23,13,40,17.20
2012,08,23,13,41,17.30
2012,08,23,13,42,17.30
2012,08,23,13,43,17.30
2012,08,23,13,44,17.40
2012,08,23,13,45,17.40
2012,08,23,13,46,17.40
2012,08,23,13,47,17.40
2012,08,23,13,48,17.40
2012,08,23,13,49,17.40
2012,08,23,13,50,17.40
2012,08,23,13,51,17.30
2012,08,23,13,52,17.30
2012,08,23,13,53,17.40
2012,08,23,13,54,17.40
2012,08,23,13,55,17.50
2012,08,23,13,56,17.50
2012,08,23,13,57,17.40
2012,08,23,13,58,17.40
2012,08,23,13,59,17.50
2012,08,23,14,00,17.60
2012,08,23,14,01,17.60
2012,08,23,14,02,17.70
2012,08,23,14,03,17.90
2012,08,23,14,04,18.00
2012,08,23,14,05,18.10
2012,08,23,14,06,18.20
2012,08,23,14,07,18.30
2012,08,23,14,08,18.30
2012,08,23,14,09,18.30
2012,08,23,14,10,18.30
2012,08,23,14,11,18.40
2012,08,23,14,12,18.40
2012,08,23,14,13,18.30
2012,08,23,14,14,18.20
2012,08,23,14,15,18.20
2012,08,23,14,16,18.30
2012,08,23,14,17,18.20
2012,08,23,14,18,18.20
2012,08,23,14,19,18.20
2012,08,23,14,20,18.20
2012,08,23,14,21,18.20
2012,08,23,14,22,18.20
2012,08,23,14,23,18.20
2012,08,23,14,24,18.20
2012,08,23,14,25,18.10
2012,08,23,14,26,18.00
2012,08,23,14,27,18.00
2012,08,23,14,28,18.00
2012,08,23,14,29,18.00
2012,08,23,14,30,18.00
2012,08,23,14,31,18.10
2012,08,23,14,32,18.10
2012,08,23,14,33,18.10
2012,08,23,14,34,18.20
2012,08,23,14,35,18.20
2012,08,23,14,36,18.20
2012,08,23,14,37,18.10
2012,08,23,14,38,18.10
2012,08,23,14,39,18.00
2012,08,23,14,40,17.90
2012,08,23,14,41,17.90
2012,08,23,14,42,18.00
2012,08,23,14,43,18.00
2012,08,23,14,44,18.10
2012,08,23,14,45,18.00
2012,08,23,14,46,18.00
2012,08,23,14,47,18.10
2012,08,23,14,48,18.10
2012,08,23,14,49,18.20
2012,08,23,14,50,18.30
2012,08,23,14,51,18.30
2012,08,23,14,52,18.30
2012,08,23,14,53,18.30
2012,08,23,14,54,18.30
2012,08,23,14,55,18.40
2012,08,23,14,56,18.50
2012,08,23,14,57,18.60
2012,08,23,14,58,18.70
2012,08,23,14,59,18.60
2012,08,23,15,00,18.60
2012,08,23,15,01,18.50
2012,08,23,15,02,18.50
2012,08,23,15,03,18.50
2012,08,23,15,04,18.50
2012,08,23,15,05,18.60
2012,08,23,15,06,18.60
2012,08,23,15,07,18.60
2012,08,23,15,08,18.70
2012,08,23,15,09,18.70
2012,08,23,15,10,18.70
2012,08,23,15,11,18.70
2012,08,23,15,12,18.60
2012,08,23,15,13,18.50
2012,08,23,15,14,18.50
2012,08,23,15,15,18.40
2012,08,23,15,16,18.30
2012,08,23,15,17,18.30
2012,08,23,15,18,18.30
2012,08,23,15,19,18.30
2012,08,23,15,20,18.20
2012,08,23,15,21,18.10
2012,08,23,15,22,18.10
2012,08,23,15,23,18.20
2012,08,23,15,24,18.20
2012,08,23,15,25,18.20
2012,08,23,15,26,18.30
2012,08,23,15,27,18.30
2012,08,23,15,28,18.20
2012,08,23,15,29,18.20
2012,08,23,15,30,18.20
2012,08,23,15,31,18.10
2012,08,23,15,32,18.00
2012,08,23,15,33,18.00
2012,08,23,15,34,17.90
2012,08,23,15,35,17.90
2012,08,23,15,36,17.80
2012,08,23,15,37,17.80
2012,08,23,15,38,17.80
2012,08,23,15,39,17.80
2012,08,23,15,40,17.80
2012,08,23,15,41,17.80
2012,08,23,15,42,17.80
2012,08,23,15,43,17.80
2012,08,23,15,44,17.80
2012,08,23,15,45,17.80
2012,08,23,15,46,17.80
2012,08,23,15,47,17.80
2012,08,23,15,48,17.80
2012,08,23,15,49,17.80
2012,08,23,15,50,17.80
2012,08,23,15,51,17.70
2012,08,23,15,52,17.70
2012,08,23,15,53,17.70
2012,08,23,15,54,17.70
2012,08,23,15,55,17.70
2012,08,23,15,56,17.70
2012,08,23,15,57,17.70
2012,08,23,15,58,17.70
2012,08,23,15,59,17.80
2012,08,23,16,00,17.80
2012,08,23,16,01,17.80
2012,08,23,16,02,17.80
2012,08,23,16,03,17.80
2012,08,23,16,04,17.80
2012,08,23,16,05,17.80
2012,08,23,16,06,17.70
2012,08,23,16,07,17.70
2012,08,23,16,08,17.70
2012,08,23,16,09,17.70
2012,08,23,16,10,17.70
2012,08,23,16,11,17.70
2012,08,23,16,12,17.70
2012,08,23,16,13,17.80
2012,08,23,16,14,17.80
2012,08,23,16,15,17.70
2012,08,23,16,16,17.80
2012,08,23,16,17,17.80
2012,08,23,16,18,17.90
2012,08,23,16,19,18.00
2012,08,23,16,20,18.20
2012,08,23,16,21,18.30
2012,08,23,16,22,18.30
2012,08,23,16,23,18.40
2012,08,23,16,24,18.40
2012,08,23,16,25,18.50
2012,08,23,16,26,18.60
2012,08,23,16,27,18.60
2012,08,23,16,28,18.60
2012,08,23,16,29,18.60
2012,08,23,16,30,18.40
2012,08,23,16,31,18.20
2012,08,23,16,32,18.00
2012,08,23,16,33,17.90
2012,08,23,16,34,17.90
2012,08,23,16,35,17.80
2012,08,23,16,36,17.70
2012,08,23,16,37,17.70
2012,08,23,16,38,17.60
2012,08,23,16,39,17.50
2012,08,23,16,40,17.50
2012,08,23,16,41,17.60
2012,08,23,16,42,17.60
2012,08,23,16,43,17.60
2012,08,23,16,44,17.70
2012,08,23,16,45,17.80
2012,08,23,16,46,17.80
2012,08,23,16,47,17.70
2012,08,23,16,48,17.70
2012,08,23,16,49,17.60
2012,08,23,16,50,17.60
2012,08,23,16,51,17.60
2012,08,23,16,52,17.70
2012,08,23,16,53,17.70
2012,08,23,16,54,17.70
2012,08,23,16,55,17.70
2012,08,23,16,56,17.60
2012,08,23,16,57,17.50
2012,08,23,16,58,17.50
2012,08,23,16,59,17.50
2012,08,23,17,00,17.50
2012,08,23,17,01,17.60
2012,08,23,17,02,17.50
2012,08,23,17,03,17.50
2012,08,23,17,04,17.40
2012,08,23,17,05,17.40
2012,08,23,17,06,17.40
2012,08,23,17,07,17.30
2012,08,23,17,08,17.30
2012,08,23,17,09,17.30
2012,08,23,17,10,17.30
2012,08,23,17,11,17.30
2012,08,23,17,12,17.30
2012,08,23,17,13,17.20
2012,08,23,17,14,17.20
2012,08,23,17,15,17.20
2012,08,23,17,16,17.20
2012,08,23,17,17,17.20
2012,08,23,17,18,17.20
2012,08,23,17,19,17.30